Вернуться в каталог

VANGUARD 3

АктивенНаукаUNKNOWN
NORAD 20·PAYLOAD·🇺🇸 United States

Запущен Sep 18, 1959 с Cape Canaveral Space Force Station

Loading…

Ближайшие Пролёты (ближайшие 24 часа)

TLE

СвежийSource: Space-Track

Эпоха: Sep 14, 2026, 19:43 UTC

1 00020U 59007A   26257.82164187  .00000646  00000-0  25289-3 0  9997
2 00020  33.3444 304.1626 1636340 174.1851 188.0521 11.62029423495044

Отслеживайте VANGUARD 3 в реальном времени с AllMySat

Download on the App Store